GFSNW_850_spd_246.txt.gz
Wind_Speed
20 19 17 15 14 12 10 7 1 8 6 3 2 3 4 1 3 1 5 4 3 1 4 3 3 3 3 16 11 7 4 1 4 4 7 9 4 4 5 4 6 1 3 4
22 21 19 17 16 15 14 7 5 7 9 3 2 4 2 1 1 2 2 3 1 2 3 2 2 4 7 18 9 4 6 4 4 5 4 3 4 10 1 2 2 2 2 4
25 24 22 20 19 19 14 6 1 5 7 4 5 4 3 2 7 4 4 3 5 2 3 2 4 3 4 11 6 12 4 3 3 1 5 7 9 16 10 2 2 1 3 6
28 25 24 23 22 21 18 8 4 5 2 4 5 5 5 5 3 8 8 1 2 3 2 3 3 3 4 9 4 7 3 4 1 6 10 9 9 12 12 5 6 2 4 10
29 26 26 25 25 23 21 8 6 6 3 4 8 6 5 8 4 5 4 4 3 2 2 2 3 3 2 4 3 4 4 2 0 4 7 9 14 12 7 7 8 6 7 8
32 29 27 28 27 28 13 15 9 4 2 3 5 5 7 7 6 4 8 5 2 2 3 3 8 12 11 10 4 2 1 2 2 3 4 6 4 5 9 7 17 9 8 3
34 32 30 30 30 31 16 17 9 6 3 3 5 3 12 9 11 7 4 5 5 3 0 9 12 11 10 10 9 9 3 1 2 3 4 4 5 8 6 9 8 5 3 5
34 34 31 31 31 30 24 17 11 7 2 5 3 5 3 8 13 8 6 6 9 7 4 4 6 5 7 5 6 4 7 3 1 2 1 5 4 4 3 4 2 6 8 6
35 35 33 32 31 31 33 19 16 7 6 6 6 3 3 3 3 3 3 13 9 5 4 4 3 2 5 4 6 3 4 2 3 3 3 3 1 6 15 3 3 9 10 5
35 35 35 31 32 30 31 26 17 11 5 3 6 3 4 3 3 2 3 7 4 5 2 2 2 3 3 2 2 2 1 2 4 2 2 6 2 10 8 4 5 21 16 17
34 33 37 32 31 30 29 32 20 19 9 6 6 6 6 4 5 4 3 3 2 3 3 3 3 3 3 2 3 1 2 3 3 2 2 5 8 7 2 6 17 22 27 26
35 33 37 34 30 29 28 27 27 19 12 5 11 16 17 15 11 6 4 3 3 6 3 0 2 1 1 2 2 4 2 4 3 6 5 7 19 9 23 25 23 28 26 28
36 34 38 34 30 28 28 24 26 19 14 16 22 24 17 18 22 18 7 4 4 5 5 5 2 1 3 2 4 2 3 2 2 4 3 4 22 23 21 18 21 18 23 16
36 35 37 34 32 28 27 25 20 20 6 3 6 7 9 13 14 19 25 13 7 5 4 3 2 2 5 3 4 4 6 3 4 4 11 16 8 18 16 23 16 10 8 13
34 35 36 35 31 28 27 24 23 22 11 3 5 8 10 14 13 14 14 18 22 13 4 2 3 3 1 3 1 8 10 7 4 5 11 8 16 20 16 9 7 10 15 20
36 33 35 35 32 30 26 11 27 24 18 1 2 3 5 10 15 13 14 16 13 13 8 4 4 6 5 1 3 8 16 17 17 10 14 23 18 15 8 7 12 16 18 17
35 32 34 32 31 27 26 8 5 32 19 4 3 4 2 13 12 14 14 17 11 9 6 5 5 6 10 2 5 5 11 13 17 23 15 12 7 3 9 12 16 18 19 20
36 33 32 30 27 25 15 6 10 31 16 5 2 3 2 13 6 6 8 8 9 7 5 3 4 4 5 4 14 14 22 19 17 3 2 5 3 7 10 11 15 19 23 22
37 34 32 30 30 21 13 15 26 24 7 7 4 3 3 14 5 6 5 6 2 5 4 4 5 2 5 11 13 16 14 8 1 5 4 4 7 9 12 13 15 20 21 24
41 42 24 7 25 23 22 13 7 9 7 4 3 5 3 11 5 3 5 4 3 2 6 7 3 4 29 29 26 21 11 12 11 8 6 5 6 9 13 14 16 15 20 24
42 12 6 31 31 22 5 6 5 6 3 8 9 18 4 10 4 3 7 3 3 2 4 5 3 3 6 12 16 21 19 14 9 9 5 4 7 10 16 15 14 17 20 23
21 24 37 30 10 5 5 4 5 5 5 8 8 10 18 7 6 3 7 4 4 5 11 3 3 3 2 4 3 14 14 16 9 4 2 3 8 13 17 18 16 18 19 23
47 26 9 10 6 4 8 9 4 4 7 12 14 5 11 6 6 4 3 3 4 8 1 3 2 5 12 15 20 20 15 5 4 2 3 8 12 16 15 15 17 17 19 23
7 6 6 6 5 6 5 8 5 8 12 24 24 11 7 5 3 3 3 4 1 2 2 3 2 6 13 13 16 12 10 4 2 2 6 12 17 19 22 16 14 18 19 20
5 7 5 6 6 7 14 19 7 8 18 28 15 6 5 2 2 3 3 3 4 4 3 2 9 15 16 16 15 12 9 7 5 5 10 15 18 21 24 22 14 14 17 18
4 3 3 3 5 1 9 15 13 13 25 24 8 3 4 4 3 5 6 4 4 3 3 13 17 15 12 9 7 4 5 5 7 10 14 18 22 22 22 22 23 18 15 18
4 1 3 1 8 7 9 15 12 20 19 3 3 7 5 3 3 4 2 3 3 14 17 13 9 7 6 4 4 3 3 7 12 16 19 25 25 22 21 21 21 17 17 16

GFSNW_850_spd_249.txt.gz
Wind_Speed
25 24 20 19 18 16 13 9 1 13 10 3 0 3 5 3 3 4 2 2 4 4 1 2 2 2 1 10 6 5 3 2 4 5 5 8 2 7 4 3 5 1 3 4
28 26 22 22 22 20 17 7 4 12 13 3 3 4 2 3 3 3 3 3 3 2 0 1 3 2 1 11 8 5 5 3 5 9 5 4 5 8 7 1 2 3 2 4
31 28 25 23 24 23 21 8 1 6 11 5 5 4 4 3 6 3 4 3 1 2 0 3 3 3 2 10 5 12 7 1 2 3 6 5 7 13 9 2 2 2 1 2
33 32 28 26 25 26 23 10 5 7 3 4 5 5 6 5 4 6 10 3 4 4 1 2 2 2 4 7 3 3 3 2 2 6 7 4 8 12 10 1 4 4 3 6
34 37 32 28 28 27 26 10 7 7 4 6 9 6 6 8 4 6 4 4 5 5 4 6 5 3 3 5 1 2 2 2 3 5 8 5 7 9 9 7 6 9 5 6
37 38 34 32 32 33 16 19 10 6 5 6 6 5 6 9 8 5 9 9 4 4 6 9 10 12 10 10 4 1 2 2 2 4 5 6 4 7 5 5 7 3 6 3
38 40 38 35 35 37 23 21 12 6 3 4 6 6 11 8 10 6 6 9 7 4 5 4 8 7 8 8 8 11 4 2 2 3 5 3 5 5 3 6 4 6 4 6
39 39 40 37 36 37 34 18 15 8 2 5 3 7 5 8 11 8 8 10 6 12 4 4 6 5 6 5 4 6 6 3 2 2 1 5 1 4 3 2 1 1 3 6
41 39 42 39 38 37 38 19 19 14 8 6 7 7 9 4 3 2 3 8 15 6 5 3 3 2 5 4 6 4 5 4 3 3 2 3 1 5 11 2 3 4 11 7
42 41 43 42 38 36 35 33 15 12 7 3 11 4 7 8 5 3 4 7 3 4 2 3 3 3 2 2 2 1 2 3 4 2 3 6 4 9 6 4 4 19 20 20
42 42 42 44 38 37 37 36 24 17 10 5 10 10 7 9 9 4 8 5 1 3 3 3 3 2 3 1 2 2 3 4 3 3 2 5 1 3 2 6 19 20 17 18
43 43 41 46 38 37 35 31 32 22 11 4 13 12 12 11 8 11 11 5 6 7 4 0 2 1 1 2 2 2 2 4 3 7 5 4 5 5 19 16 15 15 20 15
43 41 40 47 39 36 36 30 31 21 13 10 15 15 13 15 15 13 6 5 6 7 5 7 2 2 3 3 4 2 3 2 3 2 3 4 17 22 12 15 16 17 8 8
43 40 38 47 39 35 34 29 25 29 7 4 5 7 14 21 20 19 17 8 10 12 8 3 3 2 6 3 3 4 6 2 3 4 10 17 10 9 16 15 10 9 11 15
43 42 39 46 39 33 32 26 23 25 19 5 3 4 8 10 13 17 18 19 14 10 4 2 2 3 2 2 1 5 13 7 4 5 12 8 13 15 17 11 8 12 18 23
43 42 41 44 38 38 36 12 23 25 25 2 2 2 5 11 13 11 14 17 18 13 5 4 5 5 6 2 3 8 12 21 21 9 7 11 20 17 10 8 12 16 17 17
44 42 43 42 42 37 25 9 13 30 22 5 2 4 4 10 19 11 12 17 10 7 6 6 5 6 9 2 4 7 15 14 16 17 12 14 10 7 6 11 13 14 15 16
45 42 44 39 37 34 17 9 11 31 18 6 3 3 3 14 7 6 7 9 9 7 5 5 4 5 3 4 16 19 19 20 24 25 16 13 6 4 6 9 12 14 15 15
47 44 42 41 34 14 19 10 26 24 7 9 5 4 4 14 7 6 5 6 2 4 3 5 7 3 6 10 13 17 13 9 5 11 12 8 4 2 5 10 13 15 14 16
50 50 26 7 23 32 26 19 9 9 6 5 3 6 3 14 5 3 6 4 3 2 5 8 3 4 27 27 25 21 11 11 10 13 10 8 4 3 8 13 15 12 15 18
47 11 6 35 38 30 5 6 5 5 3 8 8 16 5 9 4 3 6 4 3 3 4 5 3 4 4 8 14 22 28 19 11 13 8 7 2 4 10 14 14 14 16 17
24 27 41 32 10 5 5 4 5 4 6 10 10 11 8 8 7 4 7 4 4 4 10 3 3 3 7 7 5 12 18 16 12 9 7 4 3 8 13 16 16 14 16 17
55 32 8 11 5 4 10 9 4 4 8 14 15 7 10 6 4 4 3 4 4 12 2 4 3 2 6 13 18 19 19 16 12 10 6 4 7 10 13 17 15 14 14 17
9 6 7 4 5 6 5 8 6 10 14 27 25 12 7 5 3 3 4 4 4 3 3 5 3 12 16 17 19 20 15 11 9 7 3 4 8 10 13 16 17 18 20 16
6 7 6 5 6 7 9 19 11 10 31 32 14 7 6 2 3 3 2 3 4 5 4 3 12 16 21 18 16 15 11 8 4 1 3 6 11 16 22 20 16 16 20 18
4 3 4 4 5 1 10 17 10 20 30 24 6 3 4 3 3 4 7 4 5 3 4 17 22 23 20 17 13 11 11 6 2 3 7 12 17 21 20 20 18 17 17 18
3 1 8 4 7 8 9 17 12 29 30 3 3 5 6 3 3 5 4 4 3 15 22 23 19 17 15 12 11 9 4 2 6 10 13 14 12 12 15 18 18 15 13 16

GFSNW_850_spd_255.txt.gz
Wind_Speed
26 27 21 20 17 17 15 11 1 15 21 5 1 3 4 6 7 6 3 4 3 5 6 4 4 5 3 2 1 1 1 1 4 3 7 4 1 6 6 3 5 3 3 4
28 26 25 24 22 21 20 10 6 18 23 4 3 4 3 5 4 5 6 4 3 3 5 4 4 4 6 3 3 1 0 1 3 1 1 4 4 9 9 3 0 4 2 4
33 29 27 26 26 24 23 9 4 7 17 6 5 4 4 3 6 5 6 5 6 4 4 2 5 5 4 3 6 3 2 1 2 1 2 3 9 16 11 2 1 3 4 9
36 34 31 29 30 28 27 11 6 10 6 9 7 5 6 7 5 4 9 2 5 7 3 3 5 4 1 1 4 2 1 3 2 4 7 7 8 10 7 0 1 1 4 8
38 39 37 30 36 31 33 10 6 8 9 13 17 9 7 11 4 8 5 4 10 8 6 6 6 7 4 3 3 3 1 3 1 1 1 4 3 4 2 8 10 8 5 7
32 42 40 37 41 41 21 30 11 6 11 8 10 11 7 11 9 8 7 11 6 7 10 12 7 9 7 5 6 5 3 4 2 2 4 3 1 1 2 2 2 1 1 3
27 18 48 44 42 46 30 30 15 7 3 5 8 8 19 10 12 7 5 16 6 6 9 10 6 4 1 4 6 6 5 4 1 1 0 3 2 3 4 6 4 5 4 5
36 27 49 48 45 50 47 29 27 9 3 9 5 9 13 12 15 4 8 8 10 15 9 3 3 3 3 3 2 8 3 4 2 1 2 4 3 5 6 6 6 3 3 6
37 26 25 52 51 47 48 44 35 16 10 8 13 11 14 6 5 3 5 8 16 11 4 2 3 4 3 3 4 4 5 3 1 2 2 5 3 6 5 4 5 7 4 6
32 42 27 57 52 47 51 44 35 28 9 5 18 7 11 12 7 4 7 9 6 7 2 2 3 3 2 5 7 6 4 1 5 3 4 5 6 6 7 4 2 4 4 7
32 31 18 56 54 49 54 40 43 28 20 10 18 13 13 15 16 5 11 7 2 2 3 3 3 3 5 3 3 6 7 7 4 3 3 6 10 6 6 2 5 7 7 8
34 32 32 34 57 51 53 32 45 32 16 9 15 18 15 20 22 19 23 8 8 10 4 2 3 3 2 4 3 2 6 5 4 8 4 1 13 4 4 5 6 7 7 8
32 33 38 20 56 50 56 35 43 40 19 8 13 18 15 17 16 18 11 7 10 9 7 7 2 2 4 5 5 4 4 5 3 3 5 12 14 10 9 5 6 7 6 7
30 32 31 30 58 48 58 37 45 40 16 4 8 16 18 17 15 14 12 13 16 17 10 4 2 2 5 3 1 4 4 9 6 5 5 4 12 16 14 6 6 7 7 8
30 30 41 27 56 48 55 37 45 45 21 7 8 15 21 22 18 16 12 14 20 14 5 2 2 3 3 1 1 5 11 8 7 5 8 7 3 7 9 6 6 6 8 10
32 30 37 44 53 50 45 18 39 50 27 6 3 6 13 16 21 19 16 16 14 7 6 4 4 5 5 3 3 8 16 23 23 12 12 8 7 6 7 7 7 6 8 10
30 33 34 56 50 58 37 13 32 50 40 5 3 4 7 15 20 16 18 15 9 6 6 4 5 4 7 2 4 5 15 15 20 19 13 9 10 6 6 8 6 5 7 9
27 32 36 54 53 49 28 15 26 47 29 6 3 3 7 18 9 7 9 8 7 6 5 5 4 5 3 5 17 12 14 12 14 17 19 13 10 5 9 7 5 4 6 7
25 28 55 52 44 22 24 33 48 41 16 11 5 8 5 15 9 9 6 6 2 5 4 5 9 4 7 13 13 14 17 14 12 19 17 19 18 8 11 8 5 5 7 9
15 54 30 13 30 37 47 32 15 11 6 5 2 9 5 15 8 3 6 4 4 4 5 9 4 6 23 25 23 15 10 15 14 14 17 24 20 14 13 8 6 6 7 10
29 11 9 40 54 29 6 7 6 6 4 8 7 8 11 13 4 4 4 4 4 4 4 7 3 4 7 20 31 34 23 12 14 8 12 23 19 17 12 6 3 5 8 11
25 29 45 39 11 6 5 4 5 4 7 11 10 14 12 11 9 5 6 3 4 4 11 4 3 4 13 7 8 12 21 31 24 13 14 14 13 13 8 3 3 8 11 13
57 30 8 7 3 4 6 7 4 5 9 12 14 10 9 8 4 6 3 6 4 16 5 4 5 4 6 8 8 12 17 21 28 16 15 17 15 10 4 2 7 12 14 15
11 5 5 3 4 4 3 6 7 9 17 29 33 10 6 6 3 4 5 4 5 6 5 5 3 12 8 9 11 17 22 25 26 24 20 16 10 5 2 7 11 14 17 17
6 5 4 2 4 6 13 17 16 15 31 33 18 9 6 3 4 3 4 6 5 6 5 3 11 18 16 19 21 26 30 30 27 22 16 9 4 2 6 10 12 14 16 17
5 5 6 8 7 3 8 15 17 22 36 31 8 3 4 3 5 5 6 9 6 4 3 11 23 23 24 26 28 29 27 23 19 14 9 4 4 7 10 10 12 14 16 18
4 4 12 7 8 9 12 17 17 34 33 9 3 5 4 5 4 6 5 5 2 9 14 20 24 27 27 26 26 25 21 17 13 9 4 2 5 7 10 12 13 14 16 17

GFSNW_850_spd_261.txt.gz
Wind_Speed
28 27 25 22 19 12 14 12 4 7 22 12 10 8 8 5 12 10 6 7 7 8 10 9 7 8 1 6 3 3 2 2 3 3 1 1 1 3 3 3 3 4 3 4
11 28 26 28 24 16 15 14 13 7 19 7 7 8 10 8 13 14 9 9 7 5 9 6 6 8 8 7 4 3 3 3 3 6 5 7 4 2 1 5 2 3 3 3
27 19 24 31 31 20 23 15 4 8 19 18 15 14 12 9 15 14 11 7 8 10 10 6 8 10 9 7 3 5 2 3 5 4 3 3 5 4 3 2 4 2 1 2
31 34 21 32 34 28 30 14 7 14 7 16 16 18 11 19 11 13 18 11 14 12 5 10 10 12 10 9 9 6 3 4 3 5 5 6 8 7 7 8 7 4 4 2
25 36 32 15 39 34 36 11 7 19 13 28 22 17 18 18 19 14 20 12 17 15 10 9 13 14 12 7 12 9 4 2 1 4 5 6 9 10 9 6 5 3 3 5
28 27 36 31 22 43 30 32 26 13 15 18 17 19 19 18 20 15 15 20 13 15 10 7 8 11 11 3 9 10 5 3 3 2 3 6 9 17 13 9 7 5 7 7
28 30 29 34 22 49 28 31 28 21 10 14 18 17 26 20 19 13 19 19 14 15 16 15 11 6 5 6 8 7 6 7 2 2 3 4 1 4 12 9 8 7 5 3
27 29 30 36 33 35 28 27 36 26 12 18 19 22 23 23 19 19 18 15 17 21 20 7 4 2 1 3 9 10 9 8 3 3 7 9 12 11 11 10 10 10 8 4
30 30 31 32 30 32 26 35 34 36 18 18 21 17 24 16 15 15 13 10 17 22 13 5 6 6 6 6 6 13 11 10 6 4 4 4 4 6 14 6 11 12 10 5
33 30 31 31 31 29 36 29 37 34 26 26 23 18 18 23 21 13 20 18 18 22 6 5 5 7 8 9 11 12 12 6 11 9 6 8 1 11 13 6 1 12 10 5
34 32 32 30 30 32 22 30 36 43 28 17 27 23 24 26 28 13 23 13 14 12 9 7 5 5 8 8 12 14 13 10 8 9 7 9 14 16 10 5 9 10 6 4
38 33 32 31 30 31 34 30 26 45 33 17 19 24 18 19 27 29 33 10 31 14 8 7 4 5 7 10 6 16 9 9 6 10 7 3 18 9 15 8 9 7 4 4
35 34 30 30 30 32 28 33 30 39 38 17 19 22 22 21 20 15 17 27 25 16 18 8 4 5 7 8 12 14 13 20 5 8 13 9 15 20 15 11 9 8 6 7
35 31 29 29 29 31 34 29 29 36 24 7 17 21 17 19 17 14 16 22 13 18 14 7 3 4 8 7 2 12 9 15 14 12 9 9 16 20 17 15 11 9 8 8
33 29 28 28 26 29 28 30 36 30 35 12 15 25 22 15 15 17 14 19 20 19 9 4 5 7 4 3 3 9 15 12 11 7 18 17 13 22 20 20 16 13 12 10
31 28 27 25 24 27 25 14 36 38 43 15 7 14 24 19 19 17 20 21 22 16 8 9 10 6 8 4 6 11 16 23 20 17 9 11 11 11 16 22 18 15 14 11
30 27 26 26 25 28 31 9 10 43 33 9 7 7 16 24 21 17 17 18 17 10 9 8 12 12 7 4 11 4 10 13 20 19 15 14 15 14 13 17 18 15 13 10
30 28 26 25 22 29 31 39 35 37 21 11 5 5 9 24 12 8 11 11 11 9 7 9 13 11 9 6 16 26 20 13 16 18 20 18 15 16 17 16 18 17 14 11
29 26 23 20 28 17 31 27 33 44 11 11 10 10 8 16 8 10 6 8 4 5 5 8 8 9 9 11 19 20 23 26 19 18 19 20 18 20 18 19 19 17 14 11
27 22 17 11 23 39 23 20 34 21 12 12 9 20 7 26 14 7 10 8 6 4 8 9 5 15 28 24 17 15 19 20 18 22 23 24 20 22 22 21 19 16 13 10
30 16 10 14 23 29 12 8 8 6 6 13 18 25 15 29 12 8 12 5 6 5 7 9 6 7 19 35 32 23 17 20 21 21 21 22 22 23 21 20 17 14 12 8
31 17 21 15 12 11 8 6 7 6 6 15 17 26 32 24 14 7 6 6 7 5 12 5 5 5 16 22 33 33 26 21 23 20 19 21 22 23 20 19 17 13 11 9
29 10 7 9 6 4 4 7 5 8 15 29 33 16 22 13 8 5 6 7 6 15 5 5 4 10 13 18 16 26 31 23 21 21 18 18 21 21 21 18 19 15 10 7
8 5 7 6 6 5 6 14 15 28 33 38 37 23 7 13 6 4 6 5 5 6 6 6 5 13 13 18 16 21 30 27 22 21 17 20 25 25 23 20 15 10 6 5
7 8 5 3 7 18 26 24 27 28 39 40 27 19 15 8 5 5 5 7 6 8 6 6 9 15 17 18 17 19 28 30 25 22 26 30 29 27 21 15 10 7 5 5
6 5 5 19 13 10 19 24 23 34 38 38 30 6 7 5 5 8 7 7 6 5 6 11 12 18 18 18 18 21 24 29 25 24 28 28 25 21 15 11 7 5 4 4
3 2 12 12 22 16 18 29 30 40 36 15 5 6 8 7 6 9 10 7 4 7 11 11 15 18 19 20 21 23 26 28 25 24 22 24 20 14 9 6 4 3 4 4